Weather History for Mytilini, Greece

Change the Weather History Date:

Friday, May 24, 2013

  Actual Average Record
Temperature  
Mean Temperature 73 °F -  
Max Temperature 78 °F 81 °F 91 °F (2006)
Min Temperature 68 °F 65 °F 57 °F (2012)
Cooling Degree Days 8    
Growing Degree Days 23 (Base 50)    
Moisture  
Dew Point 54 °F    
Average Humidity 53    
Maximum Humidity 68    
Minimum Humidity 36    
Precipitation  
Precipitation 0.00 in 0.01 in - ()
Sea Level Pressure  
Sea Level Pressure 29.82 in    
Wind  
Wind Speed 10 mph ()    
Max Wind Speed 20 mph    
Max Gust Speed 28 mph    
Visibility 6.6 miles    
Events      
Averages and records for this station are not official NWS values.
T = Trace of Precipitation, MM = Missing Value Source: Averaged Metar Reports

Daily Weather History Graph

Daily Weather History Graph

Search for Another Location

Airport:

Trip Planner

Search our weather history database for the weather conditions in past years. The results will help you decide how hot, cold, wet, or windy it might be!

Date:

Astronomy

May. 24, 2013 Rise Set
Actual Time 5:53 AM EEST 8:27 PM EEST
Civil Twilight 5:22 AM EEST 8:58 PM EEST
Nautical Twilight 4:44 AM EEST 9:36 PM EEST
Astronomical Twilight 4:01 AM EEST 10:19 PM EEST
Moon 7:47 PM EEST (5/24) 5:09 AM EEST (5/24)
Length of Visible Light 15h 35m
Length of Day
14h 33m
Waxing Gibbous, 99% of the Moon is Illuminated
May 24
Waxing Gibbous
May 25
Full
May 31
Last Quarter
Jun 8
New
Jun 16
First Quarter

Hourly Weather History & Observations

Time (EEST) Temp. Dew Point Humidity Pressure Visibility Wind Dir Wind Speed Gust Speed Precip Events Conditions
12:50 AM 69.8 °F 59.0 °F 68% 29.74 in 6.2 mi South 6.9 mph - N/A   Partly Cloudy
1:50 AM 69.8 °F 57.2 °F 64% 29.74 in 6.2 mi ESE 6.9 mph - N/A   Scattered Clouds
2:50 AM 69.8 °F 57.2 °F 64% 29.74 in 6.2 mi SE 8.1 mph - N/A   Scattered Clouds
3:00 AM 70 °F 57 °F 54% 29.76 in 6 mi SE 8.1 mph - -   Partly Cloudy
3:50 AM 69.8 °F 57.2 °F 64% 29.74 in 6.2 mi SSE 12.7 mph - N/A   Scattered Clouds
4:20 AM 69.8 °F 57.2 °F 64% 29.74 in 6.2 mi SSW 11.5 mph 23.0 mph N/A   Scattered Clouds
4:50 AM 68.0 °F 57.2 °F 68% 29.74 in 6.2 mi SSE 8.1 mph - N/A   Scattered Clouds
5:20 AM 68.0 °F 57.2 °F 68% 29.74 in 6.2 mi South 8.1 mph - N/A   Scattered Clouds
5:50 AM 68.0 °F 57.2 °F 68% 29.74 in 6.2 mi South 8.1 mph - N/A   Scattered Clouds
6:20 AM 68.0 °F 57.2 °F 68% 29.77 in 6.2 mi SSW 16.1 mph - N/A   Scattered Clouds
6:50 AM 68.0 °F 57.2 °F 68% 29.77 in 6.2 mi SSW 13.8 mph - N/A   Scattered Clouds
7:20 AM 69.8 °F 57.2 °F 64% 29.77 in 6.2 mi SSW 12.7 mph - N/A   Scattered Clouds
7:50 AM 69.8 °F 55.4 °F 60% 29.77 in 6.2 mi SSW 13.8 mph 26.5 mph N/A   Scattered Clouds
8:20 AM 69.8 °F 55.4 °F 60% 29.80 in 6.2 mi South 16.1 mph 27.6 mph N/A   Scattered Clouds
8:50 AM 71.6 °F 55.4 °F 57% 29.80 in 6.2 mi SSW 13.8 mph - N/A   Scattered Clouds
9:00 AM 71 °F 56 °F 49% 29.81 in 9 mi SSW 13.8 mph - -   Partly Cloudy
9:20 AM 71.6 °F 55.4 °F 57% 29.80 in 6.2 mi South 16.1 mph - N/A   Scattered Clouds
9:50 AM 73.4 °F 55.4 °F 53% 29.83 in 6.2 mi South 16.1 mph - N/A   Partly Cloudy
10:20 AM 73.4 °F 55.4 °F 53% 29.83 in 6.2 mi SSW 19.6 mph - N/A   Partly Cloudy
10:50 AM 75.2 °F 55.4 °F 50% 29.83 in 6.2 mi SSW 18.4 mph - N/A   Partly Cloudy
11:20 AM 75.2 °F 55.4 °F 50% 29.83 in 6.2 mi SSW 15.0 mph - N/A   Partly Cloudy
11:50 AM 75.2 °F 53.6 °F 47% 29.83 in 6.2 mi SSW 12.7 mph 25.3 mph N/A   Partly Cloudy
12:20 PM 75.2 °F 53.6 °F 47% 29.83 in 6.2 mi SSW 10.4 mph - N/A   Partly Cloudy
12:50 PM 75.2 °F 53.6 °F 47% 29.86 in 6.2 mi South 11.5 mph 26.5 mph N/A   Partly Cloudy
1:20 PM 75.2 °F 53.6 °F 47% 29.86 in 6.2 mi South 16.1 mph - N/A   Partly Cloudy
1:50 PM 77.0 °F 53.6 °F 44% 29.86 in 6.2 mi South 17.3 mph - N/A   Partly Cloudy
2:20 PM 77.0 °F 53.6 °F 44% 29.86 in 6.2 mi South 10.4 mph 23.0 mph N/A   Partly Cloudy
2:50 PM 75.2 °F 55.4 °F 50% 29.86 in 6.2 mi SSE 11.5 mph - N/A   Partly Cloudy
3:00 PM 75 °F 56 °F 41% 29.87 in 12 mi SSE 11.5 mph - -   Scattered Clouds
3:20 PM 75.2 °F 55.4 °F 50% 29.86 in 6.2 mi South 13.8 mph - N/A   Partly Cloudy
3:50 PM 77.0 °F 50.0 °F 39% 29.86 in 6.2 mi WSW 9.2 mph - N/A   Partly Cloudy
4:20 PM 77.0 °F 50.0 °F 39% 29.86 in 6.2 mi SSW 9.2 mph - N/A   Partly Cloudy
4:50 PM 77.0 °F 48.2 °F 36% 29.86 in 6.2 mi SSW 9.2 mph - N/A   Partly Cloudy
5:20 PM 77.0 °F 48.2 °F 36% 29.86 in 6.2 mi SW 9.2 mph - N/A   Partly Cloudy
5:50 PM 75.2 °F 48.2 °F 38% 29.86 in - SW 11.5 mph - N/A   Clear
6:20 PM 75.2 °F 48.2 °F 38% 29.86 in - South 9.2 mph - N/A   Clear
6:50 PM 75.2 °F 50.0 °F 41% 29.86 in - SW 9.2 mph - N/A   Clear
7:20 PM 75.2 °F 50.0 °F 41% 29.86 in - West 5.8 mph - N/A   Clear
7:50 PM 73.4 °F 51.8 °F 47% 29.86 in - SSE 5.8 mph - N/A   Clear
8:20 PM 73.4 °F 51.8 °F 47% 29.86 in - Calm Calm - N/A   Clear
8:50 PM 71.6 °F 53.6 °F 53% 29.86 in - SSW 5.8 mph - N/A   Clear
9:00 PM 72 °F 53 °F 41% 29.88 in 12 mi SSW 5.8 mph - -   Clear
9:20 PM 71.6 °F 53.6 °F 53% 29.86 in - SSW 9.2 mph - N/A   Clear
9:50 PM 69.8 °F 55.4 °F 60% 29.86 in - SSW 10.4 mph - N/A   Clear
10:20 PM 69.8 °F 55.4 °F 60% 29.86 in - SSW 10.4 mph - N/A   Clear
10:50 PM 69.8 °F 53.6 °F 56% 29.89 in - SW 11.5 mph - N/A   Clear
11:20 PM 69.8 °F 53.6 °F 56% 29.89 in - SSW 11.5 mph - N/A   Clear
11:50 PM 69.8 °F 53.6 °F 56% 29.89 in - SW 11.5 mph - N/A   Clear